FW4125 Weather Reports


Display with metric or nautical units.
time (UTC)temp
F
wind
direction
speed
MPH
gust
MPH
rain 1hr
in
rain 24hr
in
rain mn
in
humidity
%
barometer
mb
20260906170016 86 77 0.0 3.0 0.00 0.04 0.03 53 839.6
20260906164516 85 34 0.0 2.0 0.00 0.04 0.03 56 839.6
20260906163016 84 267 0.0 3.0 0.00 0.04 0.03 58 839.6
20260906161515 82 111 0.0 0.0 0.00 0.04 0.03 59 839.6
20260906160012 81 39 0.0 2.0 0.00 0.04 0.03 62 839.6
20260906154513 80 202 0.0 3.0 0.00 0.04 0.03 65 839.6
20260906153021 80 142 0.0 2.0 0.00 0.04 0.03 68 839.6
20260906151514 79 170 0.0 1.0 0.00 0.04 0.03 68 839.6
20260906150017 79 170 0.0 1.0 0.00 0.04 0.03 69 839.6
20260906144520 78 170 0.0 1.0 0.00 0.04 0.03 69 839.6
20260906143020 78 171 0.0 1.0 0.00 0.04 0.03 69 839.6
20260906141520 77 171 0.0 0.0 0.00 0.04 0.03 68 839.6
20260906140036 77 171 0.0 1.0 0.00 0.04 0.03 68 839.6
20260906134516 77 171 0.0 1.0 0.00 0.04 0.03 68 839.6
20260906133017 77 171 0.0 0.0 0.00 0.04 0.03 67 839.6
20260906131516 76 171 0.0 0.0 0.00 0.04 0.03 67 839.6
20260906130017 76 171 0.0 0.0 0.00 0.04 0.03 67 839.6
20260906124520 76 171 0.0 0.0 0.00 0.04 0.03 66 839.6
20260906123020 76 171 0.0 0.0 0.00 0.04 0.03 66 839.6
20260906121517 76 171 0.0 0.0 0.02 0.04 0.03 66 839.6
20260906120022 76 171 0.0 0.0 0.02 0.04 0.03 65 839.6
20260906114526 76 171 0.0 0.0 0.02 0.04 0.03 65 839.6
20260906113033 77 171 0.0 0.0 0.02 0.04 0.03 65 839.6
20260906111524 77 171 0.0 0.0 0.00 0.02 0.01 66 839.6
20260906110026 77 171 0.0 0.0 0.00 0.02 0.01 65 839.6
20260906104532 77 171 0.0 0.0 0.00 0.02 0.01 65 839.6
20260906103023 77 171 0.0 0.0 0.00 0.02 0.01 65 839.6
20260906101525 77 171 0.0 0.0 0.00 0.02 0.01 65 839.6
20260906100030 77 171 0.0 0.0 0.00 0.02 0.01 65 839.6
20260906094520 77 171 0.0 0.0 0.00 0.02 0.01 65 839.6
20260906093041 78 171 0.0 0.0 0.00 0.02 0.01 65 839.6
20260906091521 78 171 0.0 0.0 0.00 0.02 0.01 65 839.6
20260906090021 78 171 0.0 0.0 0.00 0.02 0.01 65 839.6
20260906084530 78 171 0.0 0.0 0.00 0.02 0.01 64 839.6
20260906083034 78 171 0.0 0.0 0.00 0.02 0.01 64 839.6
20260906081525 78 171 0.0 0.0 0.01 0.02 0.01 64 839.6
20260906080024 78 171 0.0 0.0 0.01 0.02 0.01 64 839.6
20260906074532 79 171 0.0 1.0 0.01 0.02 0.01 64 839.6
20260906073023 79 171 0.0 0.0 0.01 0.03 0.01 63 839.6
20260906071515 79 171 0.0 1.0 0.00 0.02 0.00 63 839.6
20260906070016 79 176 0.0 1.0 0.00 0.02 0.00 63 839.6
20260906064518 79 176 0.0 0.0 0.00 0.02 0.00 63 839.6
20260906063020 79 176 0.0 0.0 0.00 0.02 0.00 62 839.6
20260906061524 79 176 0.0 0.0 0.00 0.02 0.00 61 839.6
20260906060022 80 176 0.0 1.0 0.00 0.02 0.00 60 839.6
20260906054520 80 176 0.0 0.0 0.00 0.02 0.00 58 839.6
20260906053020 81 178 0.0 0.0 0.01 0.02 0.02 56 839.6
20260906051525 82 180 0.0 0.0 0.01 0.02 0.02 53 839.6
20260906050027 84 183 0.0 0.0 0.01 0.02 0.02 51 839.6
20260906044532 86 177 0.0 1.0 0.01 0.02 0.02 49 839.6
20260906043036 86 176 0.0 1.0 0.00 0.01 0.01 49 839.6
20260906041547 87 176 0.0 0.0 0.00 0.01 0.01 48 839.6
20260906040037 87 176 0.0 0.0 0.00 0.01 0.01 47 839.6
20260906034543 87 176 0.0 1.0 0.00 0.01 0.01 46 839.6
20260906033045 88 176 0.0 0.0 0.00 0.01 0.01 45 839.6
20260906031540 88 176 0.0 2.0 0.00 0.01 0.01 45 839.6
20260906030041 88 176 0.0 2.0 0.00 0.01 0.01 44 839.6
20260906024551 89 176 0.0 1.0 0.00 0.01 0.01 43 839.6
20260906023041 90 176 0.0 2.0 0.00 0.01 0.01 43 839.6
20260906021537 90 173 0.0 2.0 0.00 0.01 0.01 41 839.6
20260906020043 91 173 0.0 2.0 0.00 0.01 0.01 40 839.6
20260906014551 92 173 0.0 5.0 0.00 0.01 0.01 39 839.6
20260906013048 93 166 0.0 5.0 0.00 0.01 0.01 37 839.6
20260906011558 94 154 1.0 3.0 0.00 0.01 0.01 34 839.6
20260906010126 95 129 0.0 0.0 0.00 0.01 0.01 31 839.6
20260906004558 96 129 0.0 0.0 0.00 0.01 0.01 29 839.6
20260906003057 97 129 0.0 0.0 0.00 0.01 0.01 29 839.6
20260906001606 98 129 0.0 2.0 0.00 0.01 0.01 29 839.6
20260906000101 98 68 0.0 1.0 0.00 0.01 0.01 28 839.6
20260905234503 98 68 0.0 2.0 0.00 0.01 0.01 28 839.6
20260905233003 98 68 0.0 3.0 0.00 0.01 0.01 27 839.6
20260905231603 98 133 0.0 1.0 0.00 0.01 0.01 27 839.6
20260905230120 99 133 0.0 2.0 0.00 0.01 0.01 27 839.6
20260905224503 99 71 0.0 2.0 0.00 0.01 0.01 27 839.6
20260905223008 100 74 1.0 3.0 0.00 0.01 0.01 27 839.6
20260905221503 100 62 0.0 3.0 0.00 0.01 0.01 27 839.6
20260905220004 100 90 0.0 0.0 0.00 0.01 0.01 28 839.6
20260905214509 100 95 0.0 2.0 0.00 0.01 0.01 28 839.6
20260905213013 99 114 0.0 3.0 0.00 0.01 0.01 28 839.6
20260905211533 99 205 0.0 1.0 0.00 0.01 0.01 27 839.6
20260905210013 100 203 1.0 3.0 0.00 0.01 0.01 27 839.6
20260905204525 101 236 1.0 4.0 0.00 0.01 0.01 26 839.6
20260905203036 100 287 0.0 3.0 0.00 0.01 0.01 25 839.6
20260905201543 100 225 1.0 3.0 0.00 0.01 0.01 27 883.9
20260905200024 100 223 2.0 4.0 0.00 0.01 0.01 26 883.9
20260905194522 100 227 1.0 5.0 0.00 0.01 0.01 26 883.9
20260905193032 100 312 1.0 4.0 0.00 0.01 0.01 27 883.9
20260905191528 99 290 1.0 5.0 0.00 0.01 0.01 29 883.9
20260905190024 99 90 0.0 2.0 0.00 0.01 0.01 30 883.9
20260905184529 98 111 1.0 5.0 0.00 0.01 0.01 32 883.9
20260905183032 97 79 0.0 3.0 0.00 0.01 0.01 33 883.9
20260905181526 96 138 0.0 3.0 0.00 0.01 0.01 34 883.9
20260905180025 95 214 1.0 4.0 0.00 0.01 0.01 36 883.9
20260905174527 93 320 0.0 4.0 0.00 0.01 0.01 38 883.9
20260905173022 91 136 0.0 0.0 0.00 0.01 0.01 40 883.9
20260905171521 89 190 0.0 0.0 0.00 0.01 0.01 43 883.9